Hettinger, ND

5:44 AM MST on January 16, 2018 (GMT -0700)
Hettinger Municipal

Weather History for KHEI - September, 2013

Change the Weather History Date:

Thursday, September 5, 2013

  Actual Average Record
Temperature  
Mean Temperature 77 °F -  
Max Temperature 92 °F 78 °F 104 °F (2001)
Min Temperature 61 °F 46 °F 33 °F (1999)
Degree Days  
Heating Degree Days 0 5  
Month to date heating degree days 2 23  
Since 1 July heating degree days 21 113  
Cooling Degree Days 12 2  
Month to date cooling degree days 33 10  
Year to date cooling degree days 280 359  
Growing Degree Days 26 (Base 50)    
Moisture  
Dew Point 61 °F    
Average Humidity 61    
Maximum Humidity 90    
Minimum Humidity 36    
Precipitation  
Precipitation 0.00 in 0.06 in 0.05 in (2015)
Month to date precipitation 0.00 0.30  
Year to date precipitation 16.60 12.59  
Sea Level Pressure  
Sea Level Pressure 30.01 in    
Wind  
Wind Speed 8 mph (ESE)    
Max Wind Speed 15 mph    
Max Gust Speed 21 mph    
Visibility 10 miles    
Events      
T = Trace of Precipitation, MM = Missing Value Source: NWS Daily Summary

Daily Weather History Graph

Daily Weather History Graph

Search for Another Location

Airport or City:

Trip Planner

Search our weather history database for the weather conditions in past years. The results will help you decide how hot, cold, wet, or windy it might be!

Date:

Astronomy

Sep. 05, 2013 Rise Set
Actual Time 6:16 AM MDT 7:20 PM MDT
Civil Twilight 5:46 AM MDT 7:51 PM MDT
Nautical Twilight 5:09 AM MDT 8:27 PM MDT
Astronomical Twilight 4:30 AM MDT 9:06 PM MDT
Moon 6:34 AM MDT (9/5) 7:08 PM MDT (9/5)
Length of Visible Light 14h 05m
Length of Day
13h 04m
New Moon, 0% of the Moon is Illuminated
Sep 5
New Moon
Sep 12
First Quarter
Sep 19
Full
Sep 26
Last Quarter
Oct 4
New

Hourly Weather History & Observations

Time (MDT) Temp. Heat Index Dew Point Humidity Pressure Visibility Wind Dir Wind Speed Gust Speed Precip Events Conditions
12:53 AM 66.9 °F - 60.1 °F 79% 30.07 in 10.0 mi ESE 12.7 mph - N/A   Clear
1:53 AM 66.0 °F - 59.0 °F 78% 30.08 in 10.0 mi SE 8.1 mph - N/A   Clear
2:53 AM 64.9 °F - 59.0 °F 81% 30.09 in 10.0 mi SE 5.8 mph - N/A   Mostly Cloudy
3:53 AM 64.9 °F - 59.0 °F 81% 30.08 in 10.0 mi ESE 6.9 mph - N/A   Clear
4:53 AM 63.0 °F - 59.0 °F 87% 30.06 in 10.0 mi ESE 6.9 mph - N/A   Mostly Cloudy
5:53 AM 62.1 °F - 57.9 °F 86% 30.05 in 10.0 mi East 9.2 mph - N/A   Clear
7:53 AM 64.9 °F - 59.0 °F 81% 30.08 in 10.0 mi SE 9.2 mph - N/A   Clear
8:53 AM 71.1 °F - 61.0 °F 70% 30.08 in 10.0 mi SSE 9.2 mph - N/A   Clear
9:53 AM 75.0 °F - 61.0 °F 62% 30.07 in 10.0 mi SE 9.2 mph - N/A   Clear
10:53 AM 80.1 °F 81.2 °F 62.1 °F 54% 30.06 in 10.0 mi SSE 8.1 mph - N/A   Clear
11:53 AM 84.9 °F 85.4 °F 62.1 °F 46% 30.04 in 10.0 mi East 6.9 mph - N/A   Clear
12:53 PM 87.1 °F 87.5 °F 62.1 °F 43% 30.01 in 10.0 mi ESE 9.2 mph - N/A   Clear
1:53 PM 89.1 °F 89.0 °F 61.0 °F 39% 30.00 in 10.0 mi ESE 9.2 mph 16.1 mph N/A   Clear
2:53 PM 91.0 °F 90.9 °F 61.0 °F 36% 29.98 in 10.0 mi SE 10.4 mph - N/A   Clear
3:53 PM 91.0 °F 90.9 °F 61.0 °F 36% 29.96 in 10.0 mi SE 10.4 mph - N/A   Clear
4:53 PM 91.0 °F 90.5 °F 60.1 °F 35% 29.95 in 10.0 mi ESE 11.5 mph - N/A   Clear
5:53 PM 89.1 °F 89.0 °F 61.0 °F 39% 29.95 in 10.0 mi ESE 9.2 mph - N/A   Clear
6:53 PM 84.9 °F 85.4 °F 62.1 °F 46% 30.00 in 10.0 mi ESE 8.1 mph - N/A   Clear
7:53 PM 79.0 °F - 62.1 °F 56% 29.95 in 10.0 mi ESE 5.8 mph - N/A   Clear
8:53 PM 75.9 °F - 62.1 °F 62% 29.94 in 10.0 mi ESE 8.1 mph - N/A   Clear
9:53 PM 75.9 °F - 62.1 °F 62% 29.94 in 10.0 mi ESE 9.2 mph - N/A   Clear
10:53 PM 73.0 °F - 63.0 °F 71% 29.94 in 10.0 mi ESE 5.8 mph - N/A   Clear
11:53 PM 72.0 °F - 62.1 °F 71% 29.93 in 10.0 mi SE 3.5 mph - N/A   Clear